Regional Weather Roundup
Issued by NWS Memphis, TN

Home | Current Version | Previous Version | Text Only | Print | Product List | Glossary On
Versions: 1 2 3 4 5 6 7 8 9 10 11 12 13 14 15 16 17 18 19 20 21 22 23 24 25 26 27 28 29 30 31 32 33 34 35 36 37 38 39 40 41 42 43 44 45 46 47 48 49 50
000
ASUS44 KMEG 260910
RWRMEG
MEMPHIS CWA HOURLY WEATHER ROUNDUP
NATIONAL WEATHER SERVICE MEMPHIS TN
400 AM CDT THU MAY 26 2016

...WEST TENNESSEE...

CITY           SKY/WX    TMP DP  RH WIND       PRES   REMARKS
MEMPHIS INTL   MOCLDY    73  65  75 S7        30.03S
NWS MEMPHIS      N/A     68 N/A N/A MISG        N/A
JACKSON        PTCLDY    69  62  78 S8        30.05F
LEXINGTON      CLEAR     63  63 100 CALM      30.07S
DYERSBURG      CLEAR     64  61  88 SE5       30.03S
UNION CITY     PTCLDY    64  64 100 S7        30.02F
PARIS          CLOUDY    66  61  82 S9        30.06S


...EASTERN ARKANSAS...

CITY           SKY/WX    TMP DP  RH WIND       PRES   REMARKS
JONESBORO      CLEAR     70  68  93 S6        29.98F
WEST MEMPHIS   PTCLDY    70  66  87 S7        30.01S
BATESVILLE     MOCLDY    73  72  94 S5        29.98F
NEWPORT        CLEAR     73  73 100 S7        29.98F
WALNUT RIDGE   CLEAR     72  66  83 S9        29.98F
BLYTHEVILLE    CLEAR     69  63  81 S8        30.01F
SEARCY         CLEAR     73  72  96 S6        29.99F
STUTTGART      CLEAR     75  66  73 S9        30.00S
PINE BLUFF     CLEAR     76  72  87 SW9       30.00F
MONTICELLO     CLEAR     74  71  91 S6        30.02F


...NORTH MISSISSIPPI...

CITY           SKY/WX    TMP DP  RH WIND       PRES   REMARKS
TUPELO         CLEAR     70  60  70 S3        30.08S
OXFORD         PTCLDY    72  64  78 S5        30.09R
BATESVILLE     CLOUDY    72  67  85 CALM      30.06S
OLIVE BRANCH   MOCLDY    68  68 100 S7        30.05S
TUNICA         MOCLDY    72  66  83 S8        30.03F
CLARKSDALE     CLOUDY    73  73 100 S7        30.04S
CORINTH        CLEAR     63  63 100 S5        30.08S
GREENWOOD      MOCLDY    73  68  84 S8        30.05F
COLUMBUS       CLEAR     67  62  85 S5        30.09R
STARKVILLE     CLEAR     68  63  83 CALM      30.08S
GOLDEN TRIANGL CLEAR     68  61  77 SE5       30.09R


...SOUTHEAST MISSOURI...

CITY           SKY/WX    TMP DP  RH WIND       PRES   REMARKS
KENNETT        CLOUDY    66  66 100 CALM      29.99F
WEST PLAINS    CLOUDY    72  69  90 S8        29.99F
POPLAR BLUFF   PTCLDY    66  64  93 CALM      29.98F
CAPE GIRARDEAU MOCLDY    67  63  87 CALM      30.01S


...NORTHWEST ALABAMA...

CITY           SKY/WX    TMP DP  RH WIND       PRES   REMARKS
MUSCLE SHOALS  CLEAR     64  61  90 E3        30.12R


...MIDDLE TENNESSEE...

CITY           SKY/WX    TMP DP  RH WIND       PRES   REMARKS
NASHVILLE      CLOUDY    65  62  90 S5        30.11S
CLARKSVILLE    MOCLDY    63  61  93 S5        30.07S
COLUMBIA       MOCLDY    70  70 100 SW5       30.09S


...WESTERN KENTUCKY...

CITY           SKY/WX    TMP DP  RH WIND       PRES   REMARKS
PADUCAH        PTCLDY    69  61  75 SW7       30.02S
FORT CAMPBELL  CLEAR     64  64 100 S5        30.07S


...CENTRAL ARKANSAS...

CITY           SKY/WX    TMP DP  RH WIND       PRES   REMARKS
LITTLE ROCK    MOCLDY    78  73  84 SW13      29.98F


SKY/WX REPORTED AS FAIR MEANS FEW OR NO CLOUDS BELOW
12 THOUSAND FEET.





USA.gov is the U.S. government's official web portal to all federal, state and local government web resources and services.